• In Belarus
  • List of Countries
  • For 7 days
  • Water Temperature
  • Weather Map
  • Weather Widgets
  • user-avatar
    Login

    Hourly Weather Prutz

    Today, 31 March, Tuesday

    Time Temperature Precipitation Wind Pressure Humidity
    00:00 -11°C° 0 mm 1 mps 630 mmHg 90%
    01:00 -12°C° 0 mm 1 mps 630 mmHg 82%
    02:00 -12°C° 0 mm 1 mps 630 mmHg 77%
    03:00 -13°C° 0 mm 1 mps 629 mmHg 73%
    04:00 -13°C° 0 mm 1 mps 629 mmHg 68%
    05:00 -12°C° 0 mm 1 mps 630 mmHg 66%
    06:00 -12°C° 0 mm 1 mps 630 mmHg 64%
    07:00 -11°C° 0 mm 1 mps 631 mmHg 65%
    08:00 -8°C° 0 mm 1 mps 631 mmHg 63%
    09:00 -6°C° 0 mm 1 mps 632 mmHg 60%
    10:00 -5°C° 0 mm 2 mps 632 mmHg 57%
    11:00 -5°C° 0 mm 2 mps 633 mmHg 60%
    12:00 -4°C° 0 mm 2 mps 633 mmHg 63%
    13:00 -5°C° 0 mm 3 mps 633 mmHg 65%
    14:00 -5°C° 0 mm 3 mps 632 mmHg 68%
    15:00 -4°C° 0 mm 2 mps 632 mmHg 70%
    16:00 -4°C° 0 mm 2 mps 632 mmHg 72%
    17:00 -6°C° 0 mm 2 mps 631 mmHg 78%
    18:00 -7°C° 0 mm 1 mps 631 mmHg 85%
    19:00 -9°C° 0 mm 1 mps 631 mmHg 91%
    20:00 -10°C° 0 mm 1 mps 631 mmHg 88%
    21:00 -10°C° 0 mm 1 mps 631 mmHg 86%
    22:00 -11°C° 0 mm 1 mps 631 mmHg 83%
    23:00 -11°C° 0 mm 1 mps 631 mmHg 76%

    Tomorrow, 1 April, Wednesday

    Time Temperature Precipitation Wind Pressure Humidity
    00:00 -11°C° 0 mm 1 mps 631 mmHg 70%
    01:00 -11°C° 0 mm 1 mps 631 mmHg 63%
    02:00 -10°C° 0 mm 1 mps 631 mmHg 57%
    03:00 -10°C° 0 mm 1 mps 631 mmHg 50%
    04:00 -10°C° 0 mm 1 mps 630 mmHg 43%
    05:00 -9°C° 0 mm 1 mps 631 mmHg 41%
    06:00 -8°C° 0 mm 1 mps 631 mmHg 40%
    07:00 -7°C° 0 mm 1 mps 631 mmHg 38%
    08:00 -3°C° 0 mm 1 mps 632 mmHg 40%
    09:00 0°C° 0 mm 1 mps 632 mmHg 42%
    10:00 +3°C° 0 mm 1 mps 633 mmHg 43%
    11:00 +3°C° 0 mm 1 mps 633 mmHg 50%
    12:00 +4°C° 0 mm 1 mps 632 mmHg 57%
    13:00 +4°C° 0 mm 1 mps 632 mmHg 64%
    14:00 +4°C° 0 mm 1 mps 631 mmHg 67%
    15:00 +4°C° 0 mm 1 mps 631 mmHg 69%
    16:00 +4°C° 0 mm 1 mps 631 mmHg 72%
    17:00 +1°C° 0 mm 1 mps 630 mmHg 78%
    18:00 -1°C° 0 mm 1 mps 629 mmHg 85%
    19:00 -4°C° 0 mm 0 mps 628 mmHg 91%
    20:00 -4°C° 0 mm 1 mps 628 mmHg 88%
    21:00 -4°C° 0 mm 1 mps 628 mmHg 84%
    22:00 -4°C° 0 mm 1 mps 628 mmHg 81%
    23:00 -4°C° 0 mm 1 mps 628 mmHg 76%

    Day after tomorrow, 2 April, Thursday

    Time Temperature Precipitation Wind Pressure Humidity
    00:00 -4°C° 0 mm 1 mps 628 mmHg 72%
    01:00 -6°C° 0 mm 1 mps 628 mmHg 67%
    02:00 -6°C° 0 mm 1 mps 628 mmHg 64%
    03:00 -6°C° 0 mm 1 mps 627 mmHg 61%
    04:00 -6°C° 0 mm 1 mps 627 mmHg 58%
    05:00 -6°C° 0 mm 1 mps 627 mmHg 57%
    06:00 -4°C° 0 mm 1 mps 627 mmHg 57%
    07:00 -4°C° 0 mm 1 mps 628 mmHg 56%
    08:00 -1°C° 0 mm 1 mps 628 mmHg 55%
    09:00 +1°C° 0 mm 1 mps 628 mmHg 54%
    10:00 +3°C° 0 mm 1 mps 629 mmHg 53%
    11:00 +4°C° 0 mm 1 mps 629 mmHg 57%
    12:00 +4°C° 0 mm 1 mps 628 mmHg 61%
    13:00 +5°C° 0 mm 1 mps 628 mmHg 65%
    14:00 +5°C° 0 mm 1 mps 628 mmHg 67%
    15:00 +5°C° 0 mm 1 mps 628 mmHg 69%
    16:00 +4°C° 0 mm 1 mps 627 mmHg 71%
    17:00 +3°C° 0 mm 1 mps 627 mmHg 77%
    18:00 +1°C° 0 mm 1 mps 626 mmHg 83%
    19:00 -1°C° 0 mm 1 mps 626 mmHg 89%
    20:00 -2°C° 0 mm 1 mps 626 mmHg 90%
    21:00 -2°C° 0 mm 1 mps 626 mmHg 90%
    22:00 -3°C° 0 mm 1 mps 627 mmHg 90%
    23:00 -3°C° 0 mm 1 mps 627 mmHg 90%

    3 April, Friday

    Time Temperature Precipitation Wind Pressure Humidity
    00:00 -3°C° 0 mm 1 mps 627 mmHg 90%
    01:00 -4°C° 0 mm 1 mps 627 mmHg 90%
    02:00 -4°C° 0 mm 1 mps 627 mmHg 90%
    03:00 -4°C° 0 mm 1 mps 627 mmHg 90%
    04:00 -4°C° 0 mm 1 mps 627 mmHg 90%
    05:00 -4°C° 0 mm 1 mps 627 mmHg 90%
    06:00 -3°C° 0 mm 1 mps 628 mmHg 89%
    07:00 -3°C° 0 mm 1 mps 628 mmHg 89%
    08:00 -1°C° 0 mm 1 mps 629 mmHg 86%
    09:00 0°C° 0 mm 1 mps 629 mmHg 82%
    10:00 +2°C° 0 mm 1 mps 629 mmHg 79%
    11:00 +2°C° 0 mm 1 mps 630 mmHg 77%
    12:00 +3°C° 0 mm 1 mps 630 mmHg 76%
    13:00 +4°C° 0 mm 1 mps 630 mmHg 74%
    14:00 +4°C° 0 mm 1 mps 630 mmHg 75%
    15:00 +4°C° 0 mm 1 mps 630 mmHg 77%
    16:00 +4°C° 0 mm 1 mps 630 mmHg 78%
    17:00 +2°C° 0 mm 1 mps 630 mmHg 83%
    18:00 +1°C° 0 mm 1 mps 630 mmHg 87%
    19:00 0°C° 0 mm 1 mps 630 mmHg 92%
    20:00 -1°C° 0 mm 1 mps 630 mmHg 93%
    21:00 -2°C° 0 mm 0 mps 631 mmHg 93%
    22:00 -3°C° 0 mm 0 mps 631 mmHg 94%
    23:00 -3°C° 0 mm 0 mps 631 mmHg 92%

    4 April, Saturday

    Time Temperature Precipitation Wind Pressure Humidity
    00:00 -3°C° 0 mm 0 mps 631 mmHg 90%
    01:00 -4°C° 0 mm 0 mps 631 mmHg 88%
    02:00 -3°C° 0 mm 1 mps 631 mmHg 86%
    03:00 -3°C° 0 mm 1 mps 631 mmHg 84%
    04:00 -3°C° 0 mm 1 mps 631 mmHg 82%
    05:00 -3°C° 0 mm 1 mps 632 mmHg 79%
    06:00 -2°C° 0 mm 1 mps 632 mmHg 76%
    07:00 -2°C° 0 mm 1 mps 633 mmHg 73%
    08:00 +1°C° 0 mm 1 mps 633 mmHg 69%
    09:00 +3°C° 0 mm 1 mps 634 mmHg 65%
    10:00 +5°C° 0 mm 1 mps 635 mmHg 62%
    11:00 +6°C° 0 mm 1 mps 635 mmHg 60%
    12:00 +7°C° 0 mm 1 mps 635 mmHg 59%
    13:00 +8°C° 0 mm 1 mps 635 mmHg 58%
    14:00 +8°C° 0 mm 1 mps 635 mmHg 59%
    15:00 +8°C° 0 mm 1 mps 635 mmHg 60%
    16:00 +8°C° 0 mm 1 mps 635 mmHg 61%
    17:00 +6°C° 0 mm 1 mps 634 mmHg 68%
    18:00 +4°C° 0 mm 1 mps 634 mmHg 74%
    19:00 +2°C° 0 mm 1 mps 634 mmHg 80%
    20:00 +2°C° 0 mm 1 mps 634 mmHg 80%
    21:00 +2°C° 0 mm 1 mps 635 mmHg 80%
    22:00 +1°C° 0 mm 2 mps 635 mmHg 80%
    23:00 -1°C° 0 mm 2 mps 635 mmHg 80%

    5 April, Sunday

    Time Temperature Precipitation Wind Pressure Humidity
    00:00 -1°C° 0 mm 2 mps 635 mmHg 81%
    01:00 -1°C° 0 mm 2 mps 635 mmHg 81%
    02:00 -1°C° 0 mm 2 mps 635 mmHg 80%
    03:00 -1°C° 0 mm 2 mps 635 mmHg 79%
    04:00 -2°C° 0 mm 2 mps 635 mmHg 78%
    05:00 -1°C° 0 mm 2 mps 635 mmHg 76%
    06:00 -1°C° 0 mm 2 mps 635 mmHg 74%
    07:00 +1°C° 0 mm 2 mps 635 mmHg 72%
    08:00 +3°C° 0 mm 2 mps 636 mmHg 67%
    09:00 +6°C° 0 mm 1 mps 636 mmHg 62%
    10:00 +8°C° 0 mm 1 mps 637 mmHg 57%
    11:00 +9°C° 0 mm 1 mps 636 mmHg 54%
    12:00 +10°C° 0 mm 1 mps 636 mmHg 51%
    13:00 +11°C° 0 mm 1 mps 636 mmHg 47%
    14:00 +11°C° 0 mm 1 mps 636 mmHg 48%
    15:00 +11°C° 0 mm 1 mps 636 mmHg 49%
    16:00 +10°C° 0 mm 2 mps 635 mmHg 49%
    17:00 +8°C° 0 mm 2 mps 635 mmHg 58%
    18:00 +5°C° 0 mm 2 mps 634 mmHg 67%
    19:00 +2°C° 0 mm 3 mps 633 mmHg 76%
    20:00 +2°C° 0 mm 3 mps 633 mmHg 78%
    21:00 +1°C° 0 mm 3 mps 634 mmHg 79%
    22:00 +1°C° 0 mm 3 mps 634 mmHg 81%
    23:00 0°C° 0 mm 3 mps 634 mmHg 82%
    Show more